Penticton, British Columbia

1:26 PM PDT on October 21, 2017 (GMT -0700)
Penticton

Weather History for CYYF - February, 2013

Change the Weather History Date:

Saturday, February 23, 2013

  Actual Average Record
Temperature  
Mean Temperature 40 °F -  
Max Temperature 50 °F 48 °F 50 °F (2013)
Min Temperature 30 °F 29 °F 17 °F (2011)
Degree Days  
Heating Degree Days 25    
Moisture  
Dew Point 25 °F    
Average Humidity 57    
Maximum Humidity 80    
Minimum Humidity 35    
Precipitation  
Precipitation 0.00 in 0.03 in - ()
Sea Level Pressure  
Sea Level Pressure 29.99 in    
Wind  
Wind Speed 4 mph ()    
Max Wind Speed 14 mph    
Max Gust Speed 24 mph    
Visibility 15.0 miles    
Events Rain    
Averages and records for this station are not official NWS values.
T = Trace of Precipitation, MM = Missing Value Source: Averaged Metar Reports

Daily Weather History Graph

Daily Weather History Graph

Search for Another Location

Airport or City:

Trip Planner

Search our weather history database for the weather conditions in past years. The results will help you decide how hot, cold, wet, or windy it might be!

Date:

Astronomy

Feb. 23, 2013 Rise Set
Actual Time 6:52 AM PST 5:32 PM PST
Civil Twilight 6:19 AM PST 6:04 PM PST
Nautical Twilight 5:42 AM PST 6:41 PM PST
Astronomical Twilight 5:05 AM PST 7:18 PM PST
Moon 3:42 PM PST (2/23) 5:24 AM PST (2/23)
Length of Visible Light 11h 44m
Length of Day
10h 39m
Waxing Gibbous, 96% of the Moon is Illuminated
Feb 23
Waxing Gibbous
Feb 25
Full
Mar 4
Last Quarter
Mar 11
New
Mar 19
First Quarter

Hourly Weather History & Observations

Time (PST) Temp. Windchill Dew Point Humidity Pressure Visibility Wind Dir Wind Speed Gust Speed Precip Events Conditions
12:00 AM 37.4 °F - 24.8 °F 60% 29.64 in 15.0 mi Calm Calm - N/A   Overcast
1:00 AM 41.0 °F 35.8 °F 23.0 °F 49% 29.67 in 15.0 mi East 8.1 mph - N/A   Overcast
2:00 AM 37.4 °F - 23.0 °F 56% 29.70 in 15.0 mi Calm Calm - N/A   Overcast
3:00 AM 37.4 °F - 23.0 °F 56% 29.74 in 15.0 mi ENE 2.3 mph - N/A   Mostly Cloudy
4:00 AM 34 °F - 22 °F 51% 29.77 in 15 mi Calm Calm - -   Mostly Cloudy
4:00 AM 33.8 °F - 23.0 °F 65% 29.77 in 15.0 mi Calm Calm - N/A   Mostly Cloudy
5:00 AM 35.6 °F 28.0 °F 23.0 °F 60% 29.80 in 15.0 mi Variable 10.4 mph - N/A   Mostly Cloudy
6:00 AM 35.6 °F 32.8 °F 21.2 °F 56% 29.83 in 15.0 mi NNW 3.5 mph - N/A   Overcast
7:00 AM 35.6 °F - 23.0 °F 60% 29.88 in 15.0 mi Variable 2.3 mph - N/A   Mostly Cloudy
8:00 AM 35.6 °F 31.7 °F 26.6 °F 70% 29.92 in 15.0 mi South 4.6 mph - N/A   Mostly Cloudy
9:00 AM 39.2 °F 35.9 °F 26.6 °F 61% 29.96 in 15.0 mi SE 4.6 mph - N/A   Mostly Cloudy
10:00 AM 41 °F - 27 °F 46% 29.99 in 15 mi SSE 6.9 mph - -   Partly Cloudy
10:00 AM 41.0 °F 36.4 °F 26.6 °F 57% 29.99 in 15.0 mi SSE 6.9 mph - N/A   Mostly Cloudy
11:00 AM 42.8 °F 40.1 °F 28.4 °F 57% 30.00 in 15.0 mi South 4.6 mph - N/A   Mostly Cloudy
12:00 PM 42.8 °F 39.3 °F 26.6 °F 53% 30.01 in 15.0 mi South 5.8 mph - N/A   Mostly Cloudy
1:00 PM 44.6 °F 43.1 °F 26.6 °F 49% 30.01 in 15.0 mi SSW 3.5 mph - N/A   Mostly Cloudy
2:00 PM 46.4 °F 43.5 °F 24.8 °F 43% 30.03 in 15.0 mi SE 5.8 mph - N/A   Mostly Cloudy
3:00 PM 50.0 °F - 23.0 °F 35% 30.06 in 15.0 mi SSE 3.5 mph - N/A   Mostly Cloudy
3:25 PM 48.2 °F - 26.6 °F 43% 30.08 in 15.0 mi North 13.8 mph 24.2 mph N/A Rain Light Rain Showers
4:00 PM 46 °F - 28 °F 36% 30.10 in 15 mi NNE 5.8 mph - - Rain Light Rain Showers
4:00 PM 46.4 °F 44.3 °F 28.4 °F 50% 30.10 in 15.0 mi North 4.6 mph - N/A   Mostly Cloudy
5:00 PM 42.8 °F 38.6 °F 26.6 °F 53% 30.12 in 15.0 mi NW 6.9 mph - N/A   Scattered Clouds
6:00 PM 37.4 °F - 26.6 °F 65% 30.16 in 15.0 mi North 2.3 mph - N/A   Scattered Clouds
7:00 PM 39.2 °F 37.0 °F 26.6 °F 61% 30.18 in 15.0 mi SSE 3.5 mph - N/A   Scattered Clouds
8:00 PM 32.0 °F - 24.8 °F 75% 30.22 in 15.0 mi Variable 2.3 mph - N/A   Scattered Clouds
9:00 PM 30.2 °F 26.7 °F 24.8 °F 80% 30.22 in 15.0 mi South 3.5 mph - N/A   Scattered Clouds
10:00 PM 36 °F - 26 °F 56% 30.23 in 15 mi SSW 5.8 mph - -   Scattered Clouds
10:00 PM 35.6 °F 29.9 °F 26.6 °F 70% 30.23 in 15.0 mi SSW 6.9 mph - N/A   Scattered Clouds
11:00 PM 30.2 °F 26.7 °F 21.2 °F 69% 30.25 in 15.0 mi Variable 3.5 mph - N/A   Scattered Clouds